TimeMDT,TemperatureF,Dew PointF,Humidity,Sea Level PressureIn,VisibilityMPH,Wind Direction,Wind SpeedMPH,Gust SpeedMPH,PrecipitationIn,Events,Conditions,WindDirDegrees,DateUTC
12:53 AM,42.1,17.1,37,29.44,10.0,West,6.9,-,N/A,,Clear,270,2012-03-12 06:53:00
1:53 AM,48.0,16.0,28,29.44,10.0,WNW,15.0,24.2,N/A,,Clear,290,2012-03-12 07:53:00
2:53 AM,46.0,16.0,30,29.48,10.0,WNW,6.9,-,N/A,,Clear,300,2012-03-12 08:53:00
3:53 AM,44.1,16.0,32,29.50,10.0,NW,6.9,-,N/A,,Clear,320,2012-03-12 09:53:00
4:53 AM,42.1,16.0,35,29.56,10.0,WNW,5.8,-,N/A,,Clear,300,2012-03-12 10:53:00
5:53 AM,43.0,15.1,32,29.60,10.0,WNW,6.9,-,N/A,,Clear,290,2012-03-12 11:53:00
6:53 AM,39.9,16.0,38,29.65,10.0,WNW,4.6,-,N/A,,Clear,290,2012-03-12 12:53:00
7:53 AM,42.1,16.0,35,29.67,10.0,Calm,Calm,-,N/A,,Clear,0,2012-03-12 13:53:00
8:53 AM,46.9,17.1,30,29.69,10.0,Variable,3.5,-,N/A,,Clear,0,2012-03-12 14:53:00
9:53 AM,50.0,18.0,28,29.70,10.0,West,6.9,-,N/A,,Clear,270,2012-03-12 15:53:00
10:53 AM,52.0,18.0,26,29.73,10.0,West,10.4,-,N/A,,Clear,280,2012-03-12 16:53:00
11:53 AM,54.0,17.1,23,29.73,10.0,Variable,6.9,-,N/A,,Clear,0,2012-03-12 17:53:00
12:53 PM,54.0,19.0,25,29.75,10.0,SSW,8.1,-,N/A,,Clear,200,2012-03-12 18:53:00
1:53 PM,54.0,19.9,26,29.73,10.0,SW,8.1,-,N/A,,Clear,230,2012-03-12 19:53:00
2:53 PM,55.0,21.0,27,29.74,10.0,SW,10.4,21.9,N/A,,Clear,220,2012-03-12 20:53:00
3:53 PM,53.1,17.1,24,29.76,10.0,West,12.7,20.7,N/A,,Clear,270,2012-03-12 21:53:00
4:53 PM,54.0,18.0,24,29.77,10.0,SW,11.5,17.3,N/A,,Clear,230,2012-03-12 22:53:00
5:53 PM,52.0,21.9,31,29.77,10.0,WSW,8.1,-,N/A,,Clear,240,2012-03-12 23:53:00
6:53 PM,48.0,21.9,36,29.82,10.0,Calm,Calm,-,N/A,,Clear,0,2012-03-13 00:53:00
7:53 PM,44.1,21.0,40,29.83,10.0,Calm,Calm,-,N/A,,Clear,0,2012-03-13 01:53:00
8:53 PM,41.0,21.0,45,29.83,10.0,Calm,Calm,-,N/A,,Clear,0,2012-03-13 02:53:00
9:53 PM,35.1,19.9,54,29.85,10.0,West,4.6,-,N/A,,Clear,280,2012-03-13 03:53:00
10:53 PM,35.1,21.0,57,29.84,10.0,Calm,Calm,-,N/A,,Clear,0,2012-03-13 04:53:00
11:53 PM,37.9,21.0,51,29.82,10.0,SW,4.6,-,N/A,,Clear,220,2012-03-13 05:53:00